Home > Time Zones > World Clock > Weather > U.S.A. > Nome > Past weeks

Flag for U.S.A. Weather past 2 weeks in Nome, Alaska, U.S.A.

Now
54 °F

Partly cloudy.


Feels Like: 53 °F
Forecast: 46 / 64 °F
Wind: 6 mph from Northeast

Location: Nome Airport

Current Time: Aug 23, 2014 at 12:39:12 AM

Latest Report: Aug 22, 2014 at 11:53 PM


Visibility: 10 mi

Pressure: 30.17 "Hg

Humidity: 86%

Dew point: 50 °F

Location of NomeLocation

Historic Weather in Nome — Graph

°F

Nome temperature yesterday

Maximum temperature yesterday: 58 °F (at 5:53 PM)
Minimum temperature yesterday: 40 °F (at 4:53 AM)
Average temperature yesterday: 51 °F

Past Weeks' High & Low Weather Summary

 TemperatureHumidityPressure
High75 °F (Aug 11, 12:53 PM)100% (Aug 15, 3:53 AM)30.26 "Hg (Aug 15, 3:53 AM)
Low40 °F (Aug 22, 4:53 AM)40% (Aug 11, 12:53 PM)29.43 "Hg (Aug 16, 7:53 PM)
Average59 °F78%29.71 "Hg
* Reported Aug 7 10:53 PM — Aug 22 10:53 PM, Nome, Weather by CustomWeather, © 2014

Note: Actual official high and low records may vary slightly from our data, if they occured in-between our weather recording intervals... More about our weather records

Advertising

Nome weather history for previous 24 hours

 ConditionsComfort  
Time TempWeatherWind HumidityBarometerVisibility
10:53 PM
Aug 22
57 °FBroken clouds.3 mph81%30.16 "Hg10 mi
9:53 PM58 °FBroken clouds.No wind72%30.17 "Hg10 mi
8:53 PM58 °FBroken clouds.3 mph70%30.18 "Hg10 mi
7:53 PM58 °FCloudy.5 mph78%30.18 "Hg10 mi
6:53 PM57 °FBroken clouds.3 mph81%30.19 "Hg10 mi
5:53 PM58 °FBroken clouds.7 mph75%30.20 "Hg10 mi
4:53 PM57 °FCloudy.5 mph78%30.21 "Hg10 mi
3:53 PM57 °FBroken clouds.5 mph78%30.21 "Hg10 mi
2:53 PM56 °FBroken clouds.3 mph77%30.22 "Hg10 mi
1:53 PM56 °FBroken clouds.5 mph75%30.22 "Hg10 mi
12:53 PM56 °FBroken clouds.No wind70%30.22 "Hg10 mi
11:53 AM55 °FPartly sunny.No wind74%30.22 "Hg10 mi
10:53 AM54 °FScattered clouds.3 mph77%30.22 "Hg10 mi
9:53 AM50 °FScattered clouds.No wind86%30.22 "Hg10 mi
8:53 AM44 °FScattered clouds.No wind89%30.21 "Hg10 mi
7:53 AM40 °FPassing clouds.No wind100%30.21 "Hg10 mi
6:53 AM41 °FPassing clouds.No wind96%30.21 "Hg10 mi
5:53 AM40 °FPassing clouds.3 mph97%30.22 "Hg10 mi
4:53 AM40 °FPassing clouds.No wind97%30.22 "Hg10 mi
3:53 AM42 °FPassing clouds.5 mph96%30.22 "Hg10 mi
2:53 AM44 °FPassing clouds.No wind93%30.22 "Hg10 mi
1:53 AM45 °FPassing clouds.No wind90%30.22 "Hg10 mi
12:53 AM45 °FPassing clouds.No wind93%30.22 "Hg10 mi
Weather by CustomWeather, © 2014

See weather overviewHow to use our weather pages